DECAYED

OBJECT L, 59061 (Decayed)

Orbit data source: Space-Track

You're viewing an Uncataloged Satellite

Recently launched and/or uncataloged satellites may have evolving metadata. Metadata may include but not limited to: Owner, Maufacturer, Bus, Motor, and Mission.

OBJECT L, 59061 was a satellite in LEO that was launched on Thu, 29 Feb 2024 UTC via a SOYUZ-2-1B launch vehicle from the Vostochny Cosmodrome (VOSTO). Unknown objects in Earth's orbit typically refer to objects detected orbiting the Earth but have not yet been identified or cataloged. These objects could be anything from previously untracked satellites, spent rocket stages, debris from satellite collisions, or even natural meteoroids temporarily captured by Earth's gravity. This object's orbit decayed before it could be identified.

Not visible in the next 10 days
Identifier
59061, 2024-039L
Orbit
Decayed
Country
Flag of TBDTBD
Related business
Manufacturer
Sputniks
Mission
Decayed Commercial Communications
Bus & Motor
CUBESAT 3U?, Unknown motor
Mass
3 kg wet, 3 kg dry
Launch date (UTC)
2024-02-29 (2 years ago)
Launch vehicle
SOYUZ-2-1B
Launch site
Vostochny Cosmodrome (VOSTO)
Object type
Unknown
Shape & HBR
Box, 0.1 m
Radar Cross Section
0.035 m², Medium (>0.1 m² and < 1m²)

Expand to show TLE details & history
Last TLE update: 1 year ago

TLE from 1 year ago
0 OBJECT L
1 59061U 24039L   25124.14560288  .11249086  26374-5  51333-3 0  9993
2 59061  97.3842 100.7726 0008771 219.5766 140.4895 16.42537515 66303
Epoch: 2025-05-04T03:29Z
TLE epoch observation values (Epoch: 2025-05-04T03:29:40.088Z)
Latitude
-0.00009°
Longitude
-173.92213°
Altitude
166.743 km
Speed
7.803 km/s
True Right ascension
06h 43m 05s
True Declination
0° 00' 00"
Sunlit
Object was in daylight at epoch
Visualization orbit readout
Latitude
Unknown
Longitude
Unknown
Altitude
Unknown
Speed
Unknown
Apparent Right ascension
Unknown
Apparent Declination
Unknown
Sunlit
N/A
Visualization observer readout
Local Sidereal Time
09:16:32
Azimuth
Unknown
Elevation
Unknown
Doppler factor
Unknown
Orbital elements
Apogee altitude
161.596 km
Perigee altitude
150.134 km
Semi-major axis
6,534.002 km
Eccentricity
0.00088
Inclination
97.3842°
RAAN
100.7726°
Arg. of periapsis
219.5766°
True anomaly
140.55339°
Mean anomaly
140.4895°
Eccentric anomaly
140.52145°
Mean motion
4.10936 °/min
Orbital period
87.6 mins
BSTAR
0.00051333
Loading maneuver chart data...
Computing Atmospheric mass density...
Loading historical data...
Loading historical data...
Loading historical data...
Loading historical data...
Loading historical data...
Loading historical data...
Loading historical data...

Documentation

Showing up to 5 results
|